sat.trackr.live / text

‹ back to catalog

STARLINK-5920

NORAD 55935 · 2023-037X

PAYLOAD ACTIVE UNKNOWN

§ Identity

Operator
Country
US
Launch date
2023-03-17
Launch site
AFWTR
Launch vehicle
Mass (kg)
RCS (m²)

Purposes: comms

External: N2YO · Heavens-Above · Gunter

§ Orbital elements

Epoch: 2026-05-25T02:20:39.869088Z

Period
96.11 min
Inclination
69.9998°
Eccentricity
0.0003268
Mean motion
14.98330428 rev/d
Perigee alt
569.8 km
Apogee alt
574.3 km
Semi-major
6,950.2 km
B*
-1.5683e-5
RAAN
91.8765°
Arg perigee
267.3443°
Mean anomaly
92.7342°
Rev number
17,542

§ Raw data

STARLINK-59201 55935U 23037X   26145.09768367 -.00000280  00000+0 -15683-4 0  99942 55935  69.9998  91.8765 0003268 267.3443  92.7342 14.98330428175421

JSON: /api/v1/satellites/55935 · /tle

For live sub-satellite position, see the globe view (requires WebGL).

§ Visibility from observer

Set your observer location to see the next 7 days of passes ≥ 10°. The values pass through the URL so the page stays shareable.

No JS? Fill the form by hand. The geolocation button needs JavaScript.